This demonstration page uses our WeatherBlox Daily Observations layout. Learn more.

Left ArrowRight Arrow

Hourly Observations for September 19, 2015

Temp ( °F °C ) Dew Point ( °F °C ) Humidity (%) Winds ( mph kmh ) Pressure ( in mb ) Visibility ( mi km ) Precip ( " mm )
12:53 am 00:53 Clear 61 16.1 50 10 67 67 undefined N/A 29.87 1012 10 16 0.00 0.00
1:53 am 01:53 Clear 60 15.6 50 10 70 70 Calm 29.87 1012 10 16 0.00 0.00
2:53 am 02:53 Clear 61 16.1 49 9.4 65 65 NNW 5 7 29.88 1012 10 16 0.00 0.00
3:53 am 03:53 Clear 59 15 50 10 72 72 N 7 11 29.86 1011 10 16 0.00 0.00
4:53 am 04:53 Clear 58 14.4 49 9.4 72 72 Calm 29.85 1011 10 16 0.00 0.00
5:53 am 05:53 Clear 55 12.8 49 9.4 80 80 Calm 29.86 1011 10 16 0.00 0.00
6:53 am 06:53 Clear 55 12.8 48 8.9 77 77 NNE 3 6 29.87 1012 10 16 0.00 0.00
7:53 am 07:53 Sunny 60 15.6 51 10.6 72 72 Calm 29.88 1012 10 16 0.00 0.00
8:53 am 08:53 Sunny 67 19.4 51 10.6 57 57 Calm 29.88 1012 10 16 0.00 0.00
9:53 am 09:53 Sunny 76 24.4 46 7.8 35 35 Calm 29.87 1012 10 16 0.00 0.00
10:53 am 10:53 Sunny 83 28.3 44 6.7 25 25 NNE 3 6 29.87 1012 10 16 0.00 0.00
11:53 am 11:53 Sunny 88 31.1 40 4.4 18 18 Calm 29.85 1011 10 16 0.00 0.00
12:53 pm 12:53 Sunny 91 32.8 38 3.3 15 15 Calm 29.83 1010 10 16 0.00 0.00
1:53 pm 13:53 Sunny 95 35 37 2.8 13 13 VRB 6 9 29.80 1009 10 16 0.00 0.00
2:53 pm 14:53 Sunny 97 36.1 32 0 10 10 VRB 5 7 29.78 1009 10 16 0.00 0.00
3:53 pm 15:53 Sunny 99 37.2 28 -2.2 8 8 Calm 29.76 1008 10 16 0.00 0.00
4:53 pm 16:53 Sunny 98 36.7 28 -2.2 8 8 SE 3 6 29.75 1008 10 16 0.00 0.00
5:53 pm 17:53 Sunny 97 36.1 29 -1.7 9 9 S 7 11 29.74 1007 10 16 0.00 0.00
6:53 pm 18:53 Sunny 91 32.8 38 3.3 15 15 S 5 7 29.75 1007 10 16 0.00 0.00
7:53 pm 19:53 Clear 84 28.9 41 5 22 22 Calm 29.75 1008 7 11 0.00 0.00
8:53 pm 20:53 Clear 78 25.6 45 7.2 31 31 N 3 6 29.78 1008 10 16 0.00 0.00
9:53 pm 21:53 Clear 73 22.8 47 8.3 40 40 Calm 29.80 1009 10 16 0.00 0.00
10:53 pm 22:53 Clear 71 21.7 47 8.3 42 42 N 3 6 29.81 1010 10 16 0.00 0.00
11:53 pm 23:53 Clear 67 19.4 48 8.9 51 51 Calm 29.82 1010 10 16 0.00 0.00

Powered by AerisWeather